| time (UTC) | temp F | wind direction | speed knots | gust knots | rain 1hr in | rain 24hr in | rain mn in | humidity % | barometer mb |
| 20260505151502 | 56 | 201 | 0.0 | 4.3 | 0.07 | 1.60 | 1.35 | 91 | 1009.7 |
| 20260505150117 | 56 | 243 | 0.9 | 4.3 | 0.13 | 1.59 | 1.35 | 90 | 1009.6 |
| 20260505130103 | 65 | 146 | 3.5 | 10.4 | 0.00 | 1.83 | 1.22 | 62 | 1009.3 |
| 20260505124501 | 65 | 117 | 2.6 | 7.8 | 0.00 | 1.98 | 1.22 | 67 | 1009.5 |
| 20260505123114 | 66 | 236 | 2.6 | 11.3 | 0.00 | 1.98 | 1.22 | 63 | 1009.5 |
| 20260505121603 | 66 | 100 | 2.6 | 8.7 | 0.00 | 1.98 | 1.22 | 66 | 1009.6 |
| 20260505114502 | 0 | 156 | 0.9 | 7.0 | 0.00 | 2.18 | 1.22 | 1010.0 | |
| 20260505113102 | 0 | 25 | 0.0 | 3.5 | 0.00 | 2.18 | 1.22 | 1010.1 | |
| 20260505111509 | 61 | 85 | 0.0 | 7.0 | 0.00 | 2.18 | 1.22 | 82 | 1010.4 |
| 20260505101602 | 60 | 319 | 0.0 | 1.7 | 0.00 | 2.38 | 1.22 | 90 | 1010.4 |
| 20260505100110 | 59 | 140 | 0.0 | 3.5 | 0.00 | 2.38 | 1.22 | 94 | 1010.3 |
| 20260505094608 | 58 | 51 | 2.6 | 5.2 | 0.00 | 2.52 | 1.22 | 95 | 1010.6 |
| 20260505093003 | 57 | 49 | 0.0 | 4.3 | 0.00 | 2.52 | 1.22 | 95 | 1010.5 |
| 20260505091603 | 57 | 59 | 0.0 | 2.6 | 0.00 | 2.52 | 1.22 | 95 | 1010.5 |
| 20260505090111 | 56 | 36 | 0.9 | 3.5 | 0.01 | 2.52 | 1.22 | 96 | 1010.3 |
| 20260505084503 | 56 | 13 | 1.7 | 3.5 | 0.06 | 2.61 | 1.22 | 96 | 1010.3 |
| 20260505083110 | 55 | 217 | 0.0 | 0.0 | 0.14 | 2.61 | 1.22 | 96 | 1010.1 |
| 20260505081503 | 55 | 217 | 0.0 | 0.0 | 0.20 | 2.61 | 1.22 | 97 | 1010.0 |
| 20260505080002 | 53 | 217 | 0.0 | 0.0 | 0.24 | 2.64 | 1.21 | 96 | 1009.9 |
| 20260505074603 | 53 | 217 | 0.0 | 1.7 | 0.23 | 2.58 | 1.15 | 96 | 1010.0 |
| 20260505073003 | 53 | 217 | 0.9 | 2.6 | 0.22 | 2.50 | 1.07 | 96 | 1010.1 |
| 20260505071604 | 53 | 151 | 1.7 | 2.6 | 0.21 | 2.45 | 1.02 | 96 | 1010.2 |
| 20260505064503 | 52 | 151 | 0.9 | 4.3 | 0.33 | 2.36 | 0.92 | 96 | 1010.0 |
| 20260505063105 | 52 | 259 | 0.9 | 5.2 | 0.31 | 2.29 | 0.86 | 96 | 1009.9 |
| 20260505061507 | 52 | 243 | 1.7 | 4.3 | 0.26 | 2.24 | 0.80 | 96 | 1009.8 |
| 20260505060002 | 52 | 146 | 0.0 | 2.6 | 0.18 | 2.15 | 0.71 | 96 | 1009.8 |
| 20260505054604 | 52 | 207 | 0.0 | 3.5 | 0.07 | 2.04 | 0.60 | 96 | 1009.7 |
| 20260505053012 | 52 | 360 | 0.0 | 0.9 | 0.02 | 1.98 | 0.54 | 96 | 1009.5 |
| 20260505051603 | 52 | 360 | 0.0 | 1.7 | 0.02 | 1.98 | 0.54 | 96 | 1009.6 |
| 20260505050128 | 52 | 360 | 0.0 | 0.0 | 0.00 | 1.97 | 0.53 | 96 | 1009.6 |
| 20260505041502 | 52 | 360 | 0.0 | 1.7 | 0.01 | 1.97 | 0.53 | 96 | 1009.1 |
| 20260505040003 | 52 | 360 | 0.0 | 1.7 | 0.01 | 1.97 | 0.53 | 96 | 1009.2 |
| 20260505034602 | 52 | 360 | 0.0 | 2.6 | 0.02 | 1.97 | 0.53 | 96 | 1009.2 |
| 20260505033003 | 52 | 360 | 0.0 | 0.0 | 0.07 | 1.97 | 0.53 | 96 | 1009.4 |
| 20260505031602 | 52 | 360 | 0.0 | 0.0 | 0.08 | 1.96 | 0.52 | 96 | 1009.7 |
| 20260505024502 | 52 | 360 | 0.0 | 0.0 | 0.09 | 1.94 | 0.50 | 96 | 1009.9 |
| 20260505023102 | 52 | 360 | 0.9 | 2.6 | 0.08 | 1.90 | 0.46 | 96 | 1010.2 |
| 20260505021504 | 52 | 360 | 0.9 | 2.6 | 0.14 | 1.88 | 0.44 | 96 | 1010.1 |
| 20260505020004 | 52 | 336 | 0.0 | 1.7 | 0.18 | 1.88 | 0.44 | 96 | 1010.0 |
| 20260505014631 | 52 | 336 | 1.7 | 4.3 | 0.20 | 1.86 | 0.42 | 96 | 1010.2 |
| 20260505013002 | 52 | 254 | 2.6 | 3.5 | 0.20 | 1.82 | 0.38 | 96 | 1010.5 |
| 20260505011502 | 52 | 169 | 0.9 | 2.6 | 0.15 | 1.74 | 0.30 | 96 | 1010.7 |
| 20260505010002 | 52 | 169 | 0.0 | 1.7 | 0.16 | 1.70 | 0.26 | 96 | 1010.8 |
| 20260505004602 | 52 | 169 | 0.0 | 3.5 | 0.17 | 1.66 | 0.22 | 96 | 1010.8 |
| 20260505003003 | 52 | 42 | 0.0 | 1.7 | 0.13 | 1.62 | 0.18 | 96 | 1010.6 |
| 20260505001633 | 52 | 42 | 1.7 | 3.5 | 0.10 | 1.59 | 0.15 | 96 | 1010.5 |
| 20260505000139 | 52 | 275 | 0.9 | 2.6 | 0.06 | 1.54 | 0.10 | 95 | 1010.7 |
| 20260504234502 | 52 | 238 | 0.0 | 6.1 | 0.00 | 1.49 | 0.05 | 96 | 1011.0 |
| 20260504233109 | 52 | 217 | 0.0 | 0.0 | 0.01 | 1.49 | 0.05 | 96 | 1010.8 |
| 20260504231502 | 52 | 217 | 0.0 | 0.0 | 0.02 | 1.49 | 0.05 | 95 | 1010.9 |
| 20260504224503 | 52 | 258 | 0.9 | 4.3 | 0.06 | 1.49 | 0.05 | 95 | 1011.0 |
| 20260504223103 | 52 | 343 | 1.7 | 5.2 | 0.08 | 1.48 | 0.04 | 95 | 1011.2 |
| 20260504221504 | 52 | 296 | 2.6 | 5.2 | 0.08 | 1.46 | 0.02 | 95 | 1011.2 |
| 20260504220003 | 52 | 236 | 1.7 | 3.5 | 0.07 | 1.44 | 1.44 | 95 | 1011.3 |
| 20260504214503 | 52 | 192 | 0.0 | 0.9 | 0.07 | 1.43 | 1.43 | 95 | 1011.9 |
| 20260504213148 | 52 | 192 | 0.0 | 0.0 | 0.05 | 1.40 | 1.40 | 95 | 1012.2 |
| 20260504211510 | 52 | 192 | 0.0 | 1.7 | 0.04 | 1.39 | 1.39 | 95 | 1012.5 |
| 20260504210005 | 52 | 192 | 0.0 | 0.0 | 0.02 | 1.37 | 1.37 | 96 | 1012.7 |
| 20260504204502 | 52 | 192 | 0.9 | 1.7 | 0.01 | 1.35 | 1.35 | 96 | 1012.6 |
| 20260504201505 | 52 | 313 | 0.0 | 1.7 | 0.00 | 1.35 | 1.35 | 96 | 1012.3 |
| 20260504200003 | 52 | 313 | 0.0 | 2.6 | 0.00 | 1.35 | 1.35 | 95 | 1012.3 |
| 20260504194503 | 52 | 313 | 0.0 | 0.0 | 0.00 | 1.35 | 1.35 | 95 | 1012.3 |
| 20260504193112 | 52 | 313 | 0.0 | 0.0 | 0.00 | 1.35 | 1.35 | 95 | 1012.3 |
| 20260504191503 | 52 | 313 | 0.0 | 0.0 | 0.00 | 1.35 | 1.35 | 96 | 1012.2 |
| 20260504190003 | 52 | 313 | 0.0 | 0.0 | 0.02 | 1.35 | 1.35 | 95 | 1012.2 |
| 20260504184608 | 52 | 313 | 0.0 | 0.0 | 0.03 | 1.35 | 1.35 | 95 | 1012.4 |
| 20260504183002 | 52 | 29 | 0.0 | 0.0 | 0.06 | 1.35 | 1.35 | 95 | 1012.3 |
| 20260504181503 | 52 | 13 | 0.0 | 0.0 | 0.06 | 1.35 | 1.35 | 95 | 1012.4 |
| 20260504180006 | 52 | 30 | 0.0 | 0.0 | 0.04 | 1.32 | 1.32 | 95 | 1012.8 |
| 20260504174502 | 52 | 40 | 0.0 | 0.0 | 0.03 | 1.31 | 1.31 | 95 | 1013.0 |
| 20260504173118 | 52 | 40 | 0.0 | 0.0 | 0.01 | 1.29 | 1.29 | 95 | 1013.0 |
| 20260504171503 | 52 | 338 | 0.0 | 3.5 | 0.02 | 1.28 | 1.28 | 95 | 1013.1 |
| 20260504160105 | 52 | 355 | 0.0 | 0.0 | 0.03 | 1.24 | 1.24 | 95 | 1013.6 |